Time,TemperatureF,DewpointF,PressureIn,WindDirection,WindDirectionDegrees,WindSpeedMPH,WindSpeedGustMPH,Humidity,HourlyPrecipIn,Conditions,Clouds,dailyrainin,SoftwareType,DateUTC
2013-01-11 00:00:00,55.4,40.0,30.36,North,0,0.0,0.0,56,0.00,CLR,FEW,0.00,WeatherDisplay:10.37,2013-01-11 05:00:00,
2013-01-11 00:03:00,55.4,40.4,30.36,North,0,0.0,0.0,57,0.00,CLR,FEW,0.00,WeatherDisplay:10.37,2013-01-11 05:03:00,
2013-01-11 00:09:00,55.4,41.3,30.36,North,0,0.0,0.0,59,0.00,CLR,FEW,0.00,WeatherDisplay:10.37,2013-01-11 05:09:00,
2013-01-11 00:14:00,55.4,41.7,30.36,North,0,0.0,0.0,60,0.00,CLR,FEW,0.00,WeatherDisplay:10.37,2013-01-11 05:14:00,
2013-01-11 00:19:00,55.4,41.7,30.36,North,0,0.0,0.0,60,0.00,CLR,FEW,0.00,WeatherDisplay:10.37,2013-01-11 05:19:00,
2013-01-11 00:24:00,55.4,42.6,30.36,North,0,0.0,0.0,62,0.00,CLR,FEW,0.00,WeatherDisplay:10.37,2013-01-11 05:24:00,
2013-01-11 00:29:00,55.4,43.0,30.36,North,0,0.0,0.0,63,0.00,CLR,FEW,0.00,WeatherDisplay:10.37,2013-01-11 05:29:00,
2013-01-11 00:32:00,55.4,43.4,30.36,North,0,0.0,0.0,64,0.00,CLR,FEW,0.00,WeatherDisplay:10.37,2013-01-11 05:32:00,
2013-01-11 00:37:00,55.2,44.1,30.36,North,0,0.0,0.0,66,0.00,CLR,FEW,0.00,WeatherDisplay:10.37,2013-01-11 05:37:00,
2013-01-11 00:42:00,55.2,44.4,30.36,North,0,0.0,0.0,67,0.00,CLR,FEW,0.00,WeatherDisplay:10.37,2013-01-11 05:42:00,
2013-01-11 00:47:00,55.2,44.8,30.36,North,0,0.0,0.0,68,0.00,CLR,FEW,0.00,WeatherDisplay:10.37,2013-01-11 05:47:00,
2013-01-11 00:52:00,55.2,45.2,30.36,North,0,0.0,0.0,69,0.00,CLR,FEW,0.00,WeatherDisplay:10.37,2013-01-11 05:52:00,
2013-01-11 00:57:00,55.2,45.2,30.33,North,0,0.0,0.0,69,0.00,CLR,FEW,0.00,WeatherDisplay:10.37,2013-01-11 05:57:00,
2013-01-11 01:02:00,55.2,45.6,30.33,North,0,0.0,0.0,70,0.00,CLR,FEW,0.00,WeatherDisplay:10.37,2013-01-11 06:02:00,
2013-01-11 01:07:00,55.2,46.0,30.33,North,0,0.0,0.0,71,0.00,CLR,FEW,0.00,WeatherDisplay:10.37,2013-01-11 06:07:00,
2013-01-11 01:12:00,55.0,46.2,30.36,North,0,0.0,0.0,72,0.00,CLR,FEW,0.00,WeatherDisplay:10.37,2013-01-11 06:12:00,
2013-01-11 01:17:00,55.0,46.9,30.36,North,0,0.0,0.0,74,0.00,CLR,FEW,0.00,WeatherDisplay:10.37,2013-01-11 06:17:00,
2013-01-11 01:22:00,55.0,46.9,30.36,North,0,0.0,0.0,74,0.00,CLR,FEW,0.00,WeatherDisplay:10.37,2013-01-11 06:22:00,
2013-01-11 01:27:00,55.0,47.3,30.33,North,0,0.0,0.0,75,0.00,CLR,FEW,0.00,WeatherDisplay:10.37,2013-01-11 06:27:00,
2013-01-11 01:32:00,55.0,47.3,30.33,North,0,0.0,0.0,75,0.00,CLR,FEW,0.00,WeatherDisplay:10.37,2013-01-11 06:32:00,
2013-01-11 01:37:00,55.0,47.3,30.33,North,0,0.0,0.0,75,0.00,CLR,FEW,0.00,WeatherDisplay:10.37,2013-01-11 06:37:00,
2013-01-11 01:42:00,55.0,47.6,30.33,North,0,0.0,0.0,76,0.00,CLR,FEW,0.00,WeatherDisplay:10.37,2013-01-11 06:42:00,
2013-01-11 01:47:00,55.0,47.6,30.33,North,0,0.0,0.0,76,0.00,CLR,FEW,0.00,WeatherDisplay:10.37,2013-01-11 06:47:00,
2013-01-11 01:52:00,55.0,48.0,30.33,North,0,0.0,0.0,77,0.00,CLR,FEW,0.00,WeatherDisplay:10.37,2013-01-11 06:52:00,
2013-01-11 01:57:00,55.0,48.6,30.33,North,0,0.0,0.0,79,0.00,CLR,FEW,0.00,WeatherDisplay:10.37,2013-01-11 06:57:00,
2013-01-11 02:02:00,55.0,48.6,30.33,North,0,0.0,0.0,79,0.00,CLR,FEW,0.00,WeatherDisplay:10.37,2013-01-11 07:02:00,
2013-01-11 02:07:00,54.9,48.8,30.33,North,0,0.0,0.0,80,0.00,CLR,FEW,0.00,WeatherDisplay:10.37,2013-01-11 07:07:00,
2013-01-11 02:12:00,55.0,49.0,30.33,North,0,0.0,0.0,80,0.00,CLR,FEW,0.00,WeatherDisplay:10.37,2013-01-11 07:12:00,
2013-01-11 02:17:00,55.0,49.0,30.33,North,0,0.0,0.0,80,0.00,CLR,FEW,0.00,WeatherDisplay:10.37,2013-01-11 07:17:00,
2013-01-11 02:22:00,55.0,49.3,30.33,North,0,0.0,0.0,81,0.00,CLR,FEW,0.00,WeatherDisplay:10.37,2013-01-11 07:22:00,
2013-01-11 02:27:00,55.0,49.3,30.33,North,0,0.0,0.0,81,0.00,CLR,FEW,0.00,WeatherDisplay:10.37,2013-01-11 07:27:00,
2013-01-11 02:32:00,54.9,49.5,30.33,North,0,0.0,0.0,82,0.00,CLR,FEW,0.00,WeatherDisplay:10.37,2013-01-11 07:32:00,
2013-01-11 02:37:00,54.9,49.5,30.33,North,0,0.0,0.0,82,0.00,CLR,FEW,0.00,WeatherDisplay:10.37,2013-01-11 07:37:00,
2013-01-11 02:42:00,54.9,49.5,30.33,North,0,0.0,0.0,82,0.00,CLR,FEW,0.00,WeatherDisplay:10.37,2013-01-11 07:42:00,
2013-01-11 02:47:00,54.9,49.8,30.33,North,0,0.0,0.0,83,0.00,CLR,FEW,0.00,WeatherDisplay:10.37,2013-01-11 07:47:00,
2013-01-11 02:52:00,54.9,49.8,30.33,North,0,0.0,0.0,83,0.00,CLR,FEW,0.00,WeatherDisplay:10.37,2013-01-11 07:52:00,
2013-01-11 02:57:00,54.9,50.1,30.33,North,0,0.0,0.0,84,0.00,CLR,FEW,0.00,WeatherDisplay:10.37,2013-01-11 07:57:00,
2013-01-11 03:02:00,54.9,50.1,30.33,North,0,0.0,0.0,84,0.00,CLR,FEW,0.00,WeatherDisplay:10.37,2013-01-11 08:02:00,
2013-01-11 03:07:00,54.9,50.1,30.33,North,0,0.0,0.0,84,0.00,CLR,FEW,0.00,WeatherDisplay:10.37,2013-01-11 08:07:00,
2013-01-11 03:12:00,54.9,50.4,30.30,North,0,0.0,0.0,85,0.00,CLR,FEW,0.00,WeatherDisplay:10.37,2013-01-11 08:12:00,
2013-01-11 03:18:00,54.9,50.8,30.30,North,0,0.0,0.0,86,0.00,CLR,FEW,0.00,WeatherDisplay:10.37,2013-01-11 08:18:00,
2013-01-11 03:23:00,54.9,51.1,30.30,North,0,0.0,0.0,87,0.00,CLR,FEW,0.00,WeatherDisplay:10.37,2013-01-11 08:23:00,
2013-01-11 03:28:00,54.9,51.1,30.30,North,0,0.0,0.0,87,0.00,CLR,FEW,0.00,WeatherDisplay:10.37,2013-01-11 08:28:00,
2013-01-11 03:33:00,55.0,51.5,30.30,North,0,0.0,0.0,88,0.00,CLR,FEW,0.00,WeatherDisplay:10.37,2013-01-11 08:33:00,
2013-01-11 03:38:00,55.0,51.5,30.30,North,0,0.0,0.0,88,0.00,CLR,FEW,0.00,WeatherDisplay:10.37,2013-01-11 08:38:00,
2013-01-11 03:43:00,55.0,51.5,30.30,North,0,0.0,0.0,88,0.00,CLR,FEW,0.00,WeatherDisplay:10.37,2013-01-11 08:43:00,
2013-01-11 03:48:00,55.0,51.5,30.30,North,0,0.0,0.0,88,0.00,CLR,FEW,0.00,WeatherDisplay:10.37,2013-01-11 08:48:00,
2013-01-11 03:53:00,55.0,51.5,30.30,North,0,0.0,0.0,88,0.00,CLR,FEW,0.00,WeatherDisplay:10.37,2013-01-11 08:53:00,
2013-01-11 03:58:00,55.0,51.9,30.30,North,0,0.0,0.0,89,0.00,CLR,FEW,0.00,WeatherDisplay:10.37,2013-01-11 08:58:00,
2013-01-11 04:03:00,54.9,51.7,30.30,North,0,0.0,0.0,89,0.00,CLR,FEW,0.00,WeatherDisplay:10.37,2013-01-11 09:03:00,
2013-01-11 04:08:00,54.9,51.7,30.30,North,0,0.0,0.0,89,0.00,CLR,FEW,0.00,WeatherDisplay:10.37,2013-01-11 09:08:00,
2013-01-11 04:13:00,54.9,52.0,30.30,North,0,0.0,0.0,90,0.00,CLR,FEW,0.00,WeatherDisplay:10.37,2013-01-11 09:13:00,
2013-01-11 04:18:00,54.7,51.8,30.30,North,0,0.0,0.0,90,0.00,CLR,FEW,0.00,WeatherDisplay:10.37,2013-01-11 09:18:00,
2013-01-11 04:23:00,54.7,52.1,30.30,North,0,0.0,0.0,91,0.00,CLR,FEW,0.00,WeatherDisplay:10.37,2013-01-11 09:23:00,
2013-01-11 04:28:00,54.5,51.9,30.30,North,0,0.0,0.0,91,0.00,CLR,FEW,0.00,WeatherDisplay:10.37,2013-01-11 09:28:00,
2013-01-11 04:33:00,54.5,51.9,30.30,North,0,0.0,0.0,91,0.00,CLR,FEW,0.00,WeatherDisplay:10.37,2013-01-11 09:33:00,
2013-01-11 04:38:00,54.5,52.2,30.30,North,0,0.0,0.0,92,0.00,CLR,FEW,0.00,WeatherDisplay:10.37,2013-01-11 09:38:00,
2013-01-11 04:43:00,54.5,52.2,30.30,North,0,0.0,0.0,92,0.00,CLR,FEW,0.00,WeatherDisplay:10.37,2013-01-11 09:43:00,
2013-01-11 04:48:00,54.5,52.2,30.30,North,0,0.0,0.0,92,0.00,CLR,FEW,0.00,WeatherDisplay:10.37,2013-01-11 09:48:00,
2013-01-11 04:53:00,54.7,52.4,30.30,North,0,0.0,0.0,92,0.00,CLR,FEW,0.00,WeatherDisplay:10.37,2013-01-11 09:53:00,
2013-01-11 04:58:00,54.7,52.4,30.27,North,0,0.0,0.0,92,0.00,CLR,FEW,0.00,WeatherDisplay:10.37,2013-01-11 09:58:00,
2013-01-11 05:03:00,54.7,52.4,30.27,North,0,0.0,0.0,92,0.00,CLR,FEW,0.00,WeatherDisplay:10.37,2013-01-11 10:03:00,
2013-01-11 05:08:00,54.7,52.7,30.27,North,0,0.0,0.0,93,0.00,CLR,FEW,0.00,WeatherDisplay:10.37,2013-01-11 10:08:00,
2013-01-11 05:13:00,54.7,52.7,30.27,North,0,0.0,0.0,93,0.00,CLR,FEW,0.00,WeatherDisplay:10.37,2013-01-11 10:13:00,
2013-01-11 05:18:00,54.7,52.7,30.27,North,0,0.0,0.0,93,0.00,CLR,FEW,0.00,WeatherDisplay:10.37,2013-01-11 10:18:00,
2013-01-11 05:23:00,54.7,52.7,30.27,North,0,0.0,0.0,93,0.00,CLR,FEW,0.00,WeatherDisplay:10.37,2013-01-11 10:23:00,
2013-01-11 05:28:00,54.7,52.7,30.27,North,0,0.0,0.0,93,0.00,CLR,FEW,0.00,WeatherDisplay:10.37,2013-01-11 10:28:00,
2013-01-11 05:33:00,54.7,52.7,30.27,North,0,0.0,0.0,93,0.00,CLR,FEW,0.00,WeatherDisplay:10.37,2013-01-11 10:33:00,
2013-01-11 05:38:00,54.7,52.7,30.27,North,0,0.0,0.0,93,0.00,CLR,FEW,0.00,WeatherDisplay:10.37,2013-01-11 10:38:00,
2013-01-11 05:43:00,54.7,52.7,30.27,North,0,0.0,0.0,93,0.00,CLR,FEW,0.00,WeatherDisplay:10.37,2013-01-11 10:43:00,
2013-01-11 05:48:00,54.7,52.7,30.27,North,0,0.0,0.0,93,0.00,CLR,FEW,0.00,WeatherDisplay:10.37,2013-01-11 10:48:00,
2013-01-11 05:53:00,54.9,52.9,30.27,North,0,0.0,0.0,93,0.00,CLR,FEW,0.00,WeatherDisplay:10.37,2013-01-11 10:53:00,
2013-01-11 05:58:00,54.9,53.2,30.27,North,0,0.0,0.0,94,0.00,CLR,FEW,0.00,WeatherDisplay:10.37,2013-01-11 10:58:00,
2013-01-11 06:03:00,55.2,53.8,30.27,North,0,0.0,0.0,95,0.00,CLR,FEW,0.00,WeatherDisplay:10.37,2013-01-11 11:03:00,
2013-01-11 06:08:00,55.2,53.8,30.27,North,0,0.0,0.0,95,0.00,CLR,FEW,0.00,WeatherDisplay:10.37,2013-01-11 11:08:00,
2013-01-11 06:13:00,55.4,54.0,30.30,North,0,0.0,0.0,95,0.00,CLR,FEW,0.00,WeatherDisplay:10.37,2013-01-11 11:13:00,
2013-01-11 06:18:00,55.4,54.0,30.30,North,0,0.0,0.0,95,0.00,CLR,FEW,0.00,WeatherDisplay:10.37,2013-01-11 11:18:00,
2013-01-11 06:23:00,55.6,54.2,30.30,North,0,0.0,0.0,95,0.00,CLR,FEW,0.00,WeatherDisplay:10.37,2013-01-11 11:23:00,
2013-01-11 06:28:00,55.6,54.2,30.30,North,0,0.0,0.0,95,0.00,CLR,FEW,0.00,WeatherDisplay:10.37,2013-01-11 11:28:00,
2013-01-11 06:33:00,55.6,54.2,30.30,North,0,0.0,0.0,95,0.00,CLR,FEW,0.00,WeatherDisplay:10.37,2013-01-11 11:33:00,
2013-01-11 06:38:00,55.6,54.2,30.30,North,0,0.0,0.0,95,0.00,CLR,FEW,0.00,WeatherDisplay:10.37,2013-01-11 11:38:00,
2013-01-11 06:43:00,55.6,54.2,30.27,North,0,0.0,0.0,95,0.00,CLR,FEW,0.00,WeatherDisplay:10.37,2013-01-11 11:43:00,
2013-01-11 06:48:00,55.6,54.2,30.27,North,0,0.0,0.0,95,0.00,CLR,FEW,0.00,WeatherDisplay:10.37,2013-01-11 11:48:00,
2013-01-11 06:53:00,55.6,54.2,30.27,North,0,0.0,0.0,95,0.00,CLR,FEW,0.00,WeatherDisplay:10.37,2013-01-11 11:53:00,
2013-01-11 06:58:00,55.6,54.2,30.27,North,0,0.0,0.0,95,0.00,CLR,FEW,0.00,WeatherDisplay:10.37,2013-01-11 11:58:00,
2013-01-11 07:03:00,55.8,54.6,30.27,North,0,0.0,0.0,96,0.00,CLR,FEW,0.00,WeatherDisplay:10.37,2013-01-11 12:03:00,
2013-01-11 07:08:00,55.9,54.8,30.27,North,0,0.0,0.0,96,0.00,CLR,FEW,0.00,WeatherDisplay:10.37,2013-01-11 12:08:00,
2013-01-11 07:13:00,55.9,54.8,30.30,North,0,0.0,0.0,96,0.00,CLR,FEW,0.00,WeatherDisplay:10.37,2013-01-11 12:13:00,
2013-01-11 07:18:00,56.1,55.0,30.30,North,0,0.0,0.0,96,0.00,CLR,FEW,0.00,WeatherDisplay:10.37,2013-01-11 12:18:00,
2013-01-11 07:23:00,56.3,55.2,30.30,North,0,0.0,0.0,96,0.00,CLR,FEW,0.00,WeatherDisplay:10.37,2013-01-11 12:23:00,
2013-01-11 07:28:00,56.3,55.2,30.27,North,0,0.0,0.0,96,0.00,CLR,FEW,0.00,WeatherDisplay:10.37,2013-01-11 12:28:00,
2013-01-11 07:33:00,56.5,55.4,30.27,North,0,0.0,0.0,96,0.00,CLR,FEW,0.00,WeatherDisplay:10.37,2013-01-11 12:33:00,
2013-01-11 07:38:00,56.7,55.8,30.27,North,0,0.0,0.0,97,0.00,CLR,FEW,0.00,WeatherDisplay:10.37,2013-01-11 12:38:00,
2013-01-11 07:43:00,56.8,56.0,30.27,North,0,0.0,0.0,97,0.00,CLR,FEW,0.00,WeatherDisplay:10.37,2013-01-11 12:43:00,
2013-01-11 07:48:00,57.0,56.2,30.27,North,0,0.0,0.0,97,0.00,CLR,FEW,0.00,WeatherDisplay:10.37,2013-01-11 12:48:00,
2013-01-11 07:53:00,57.2,56.4,30.27,North,0,0.0,0.0,97,0.00,CLR,FEW,0.00,WeatherDisplay:10.37,2013-01-11 12:53:00,
2013-01-11 07:58:00,57.4,56.5,30.27,North,0,0.0,0.0,97,0.00,CLR,FEW,0.00,WeatherDisplay:10.37,2013-01-11 12:58:00,
2013-01-11 08:03:00,57.6,56.7,30.27,North,0,0.0,0.0,97,0.00,CLR,FEW,0.00,WeatherDisplay:10.37,2013-01-11 13:03:00,
2013-01-11 08:08:00,58.1,57.3,30.27,North,0,0.0,0.0,97,0.00,CLR,FEW,0.00,WeatherDisplay:10.37,2013-01-11 13:08:00,
2013-01-11 08:13:00,58.5,57.6,30.27,North,0,0.0,0.0,97,0.00,CLR,FEW,0.00,WeatherDisplay:10.37,2013-01-11 13:13:00,
2013-01-11 08:18:00,58.6,57.8,30.27,North,0,0.0,0.0,97,0.00,CLR,FEW,0.00,WeatherDisplay:10.37,2013-01-11 13:18:00,
2013-01-11 08:23:00,58.8,58.0,30.27,North,0,0.0,0.0,97,0.00,CLR,FEW,0.00,WeatherDisplay:10.37,2013-01-11 13:23:00,
2013-01-11 08:28:00,58.8,58.0,30.27,North,0,0.0,0.0,97,0.00,CLR,FEW,0.00,WeatherDisplay:10.37,2013-01-11 13:28:00,
2013-01-11 08:33:00,58.8,58.0,30.27,North,0,0.0,0.0,97,0.00,CLR,FEW,0.00,WeatherDisplay:10.37,2013-01-11 13:33:00,
2013-01-11 08:38:00,58.8,58.0,30.27,North,0,0.0,0.0,97,0.04,RA,FEW,0.04,WeatherDisplay:10.37,2013-01-11 13:38:00,
2013-01-11 08:43:00,58.8,58.0,30.30,North,0,0.0,0.0,97,0.04,RA,FEW,0.04,WeatherDisplay:10.37,2013-01-11 13:43:00,
2013-01-11 08:48:00,58.8,58.0,30.30,North,0,0.0,0.0,97,0.04,CLR,FEW,0.04,WeatherDisplay:10.37,2013-01-11 13:48:00,
2013-01-11 08:53:00,58.8,58.0,30.30,North,0,0.0,0.0,97,0.04,CLR,FEW,0.04,WeatherDisplay:10.37,2013-01-11 13:53:00,
2013-01-11 08:58:00,59.0,58.2,30.30,North,0,0.0,0.0,97,0.04,CLR,FEW,0.04,WeatherDisplay:10.37,2013-01-11 13:58:00,
2013-01-11 09:03:00,59.2,58.3,30.30,North,0,0.0,0.0,97,0.04,CLR,FEW,0.04,WeatherDisplay:10.37,2013-01-11 14:03:00,
2013-01-11 09:08:00,59.4,58.5,30.30,North,0,0.0,0.0,97,0.04,CLR,FEW,0.04,WeatherDisplay:10.37,2013-01-11 14:08:00,
2013-01-11 09:13:00,59.5,58.7,30.30,North,0,0.0,0.0,97,0.04,CLR,FEW,0.04,WeatherDisplay:10.37,2013-01-11 14:13:00,
2013-01-11 09:18:00,59.7,58.9,30.30,North,0,0.0,0.0,97,0.04,CLR,FEW,0.04,WeatherDisplay:10.37,2013-01-11 14:18:00,
2013-01-11 09:23:00,60.4,59.6,30.30,North,0,0.0,0.0,97,0.04,CLR,FEW,0.04,WeatherDisplay:10.37,2013-01-11 14:23:00,
2013-01-11 09:28:00,60.6,59.8,30.30,North,0,0.0,0.0,97,0.04,CLR,FEW,0.04,WeatherDisplay:10.37,2013-01-11 14:28:00,
2013-01-11 09:33:00,60.8,59.9,30.30,North,0,0.0,0.0,97,0.04,CLR,FEW,0.04,WeatherDisplay:10.37,2013-01-11 14:33:00,
2013-01-11 09:38:00,61.2,60.3,30.30,North,0,0.0,0.0,97,0.04,CLR,FEW,0.04,WeatherDisplay:10.37,2013-01-11 14:38:00,
2013-01-11 09:43:00,61.9,61.0,30.30,North,0,0.0,0.0,97,0.00,CLR,FEW,0.04,WeatherDisplay:10.37,2013-01-11 14:43:00,
2013-01-11 09:48:00,62.2,61.4,30.30,North,0,0.0,0.0,97,0.00,CLR,FEW,0.04,WeatherDisplay:10.37,2013-01-11 14:48:00,
2013-01-11 09:53:00,62.4,61.6,30.30,North,0,0.0,0.0,97,0.00,CLR,FEW,0.04,WeatherDisplay:10.37,2013-01-11 14:53:00,
2013-01-11 09:58:00,62.2,61.4,30.30,North,0,0.0,0.0,97,0.00,CLR,FEW,0.04,WeatherDisplay:10.37,2013-01-11 14:58:00,
2013-01-11 10:03:00,62.6,61.4,30.30,North,0,0.0,0.0,96,0.00,CLR,FEW,0.04,WeatherDisplay:10.37,2013-01-11 15:03:00,
2013-01-11 10:08:00,63.0,61.8,30.30,North,0,0.0,0.0,96,0.00,CLR,FEW,0.04,WeatherDisplay:10.37,2013-01-11 15:08:00,
2013-01-11 10:13:00,63.3,62.2,30.27,North,0,0.0,0.0,96,0.00,CLR,FEW,0.04,WeatherDisplay:10.37,2013-01-11 15:13:00,
2013-01-11 10:18:00,63.5,61.4,30.27,North,0,0.0,0.0,93,0.00,CLR,FEW,0.04,WeatherDisplay:10.37,2013-01-11 15:18:00,
2013-01-11 10:23:00,63.7,61.0,30.27,North,0,0.0,0.0,91,0.00,CLR,FEW,0.04,WeatherDisplay:10.37,2013-01-11 15:23:00,
2013-01-11 10:28:00,64.2,60.9,30.30,North,0,0.0,0.0,89,0.00,CLR,FEW,0.04,WeatherDisplay:10.37,2013-01-11 15:28:00,
2013-01-11 10:33:00,64.6,60.3,30.30,North,0,0.0,0.0,86,0.00,CLR,FEW,0.04,WeatherDisplay:10.37,2013-01-11 15:33:00,
2013-01-11 10:38:00,65.1,60.5,30.30,North,0,0.0,0.0,85,0.00,CLR,FEW,0.04,WeatherDisplay:10.37,2013-01-11 15:38:00,
2013-01-11 10:43:00,65.7,60.0,30.27,North,0,0.0,0.0,82,0.00,CLR,FEW,0.04,WeatherDisplay:10.37,2013-01-11 15:43:00,
2013-01-11 10:48:00,65.7,59.0,30.27,North,0,0.0,0.0,79,0.00,CLR,FEW,0.04,WeatherDisplay:10.37,2013-01-11 15:48:00,
2013-01-11 10:53:00,66.0,58.2,30.27,North,0,0.0,0.0,76,0.00,CLR,FEW,0.04,WeatherDisplay:10.37,2013-01-11 15:53:00,
2013-01-11 10:58:00,66.2,58.0,30.27,North,0,0.0,0.0,75,0.00,CLR,FEW,0.04,WeatherDisplay:10.37,2013-01-11 15:58:00,
2013-01-11 11:03:00,66.7,58.6,30.27,North,0,0.0,0.0,75,0.00,CLR,FEW,0.04,WeatherDisplay:10.37,2013-01-11 16:03:00,
2013-01-11 11:08:00,67.3,59.1,30.27,North,0,0.0,0.0,75,0.00,CLR,FEW,0.04,WeatherDisplay:10.37,2013-01-11 16:08:00,
2013-01-11 11:13:00,67.8,59.2,30.24,North,0,0.0,0.0,74,0.00,CLR,FEW,0.04,WeatherDisplay:10.37,2013-01-11 16:13:00,
2013-01-11 11:18:00,68.2,58.4,30.24,North,0,0.0,0.0,71,0.00,CLR,FEW,0.04,WeatherDisplay:10.37,2013-01-11 16:18:00,
2013-01-11 11:23:00,68.2,58.0,30.24,North,0,0.0,0.0,70,0.00,CLR,FEW,0.04,WeatherDisplay:10.37,2013-01-11 16:23:00,
2013-01-11 11:28:00,68.4,58.6,30.27,North,0,0.0,0.0,71,0.00,CLR,FEW,0.04,WeatherDisplay:10.37,2013-01-11 16:28:00,
2013-01-11 11:33:00,68.4,57.8,30.27,North,0,0.0,0.0,69,0.00,CLR,FEW,0.04,WeatherDisplay:10.37,2013-01-11 16:33:00,
2013-01-11 11:38:00,68.5,58.4,30.27,North,0,0.0,0.0,70,0.00,CLR,FEW,0.04,WeatherDisplay:10.37,2013-01-11 16:38:00,
2013-01-11 11:43:00,68.2,57.2,30.24,North,0,0.0,0.0,68,0.00,CLR,FEW,0.04,WeatherDisplay:10.37,2013-01-11 16:43:00,
2013-01-11 11:48:00,68.2,58.0,30.24,North,0,0.0,0.0,70,0.00,CLR,FEW,0.04,WeatherDisplay:10.37,2013-01-11 16:48:00,
2013-01-11 11:53:00,68.4,58.6,30.24,North,0,0.0,0.0,71,0.00,CLR,FEW,0.04,WeatherDisplay:10.37,2013-01-11 16:53:00,
2013-01-11 11:58:00,69.1,60.8,30.24,North,0,0.0,0.0,75,0.00,CLR,FEW,0.04,WeatherDisplay:10.37,2013-01-11 16:58:00,
2013-01-11 12:03:00,69.6,61.3,30.24,North,0,0.0,0.0,75,0.00,CLR,FEW,0.04,WeatherDisplay:10.37,2013-01-11 17:03:00,
2013-01-11 12:08:00,69.8,59.6,30.24,North,0,0.0,0.0,70,0.00,CLR,FEW,0.04,WeatherDisplay:10.37,2013-01-11 17:08:00,
2013-01-11 12:13:00,70.3,59.7,30.24,North,0,0.0,0.0,69,0.00,CLR,FEW,0.04,WeatherDisplay:10.37,2013-01-11 17:13:00,
2013-01-11 12:18:00,70.3,59.3,30.24,North,0,0.0,0.0,68,0.00,CLR,FEW,0.04,WeatherDisplay:10.37,2013-01-11 17:18:00,
2013-01-11 12:23:00,70.2,57.8,30.24,North,0,0.0,0.0,65,0.00,CLR,FEW,0.04,WeatherDisplay:10.37,2013-01-11 17:23:00,
2013-01-11 12:28:00,69.3,56.6,30.24,North,0,0.0,0.0,64,0.00,CLR,FEW,0.04,WeatherDisplay:10.37,2013-01-11 17:28:00,
2013-01-11 12:33:00,68.7,56.9,30.24,North,0,0.0,0.0,66,0.00,CLR,FEW,0.04,WeatherDisplay:10.37,2013-01-11 17:33:00,
2013-01-11 12:38:00,68.4,58.6,30.24,North,0,0.0,0.0,71,0.00,CLR,FEW,0.04,WeatherDisplay:10.37,2013-01-11 17:38:00,
2013-01-11 12:43:00,68.2,58.8,30.24,North,0,0.0,0.0,72,0.00,CLR,FEW,0.04,WeatherDisplay:10.37,2013-01-11 17:43:00,
2013-01-11 12:48:00,68.4,59.7,30.24,North,0,0.0,0.0,74,0.00,CLR,FEW,0.04,WeatherDisplay:10.37,2013-01-11 17:48:00,
2013-01-11 12:53:00,68.5,59.5,30.24,North,0,0.0,0.0,73,0.00,CLR,FEW,0.04,WeatherDisplay:10.37,2013-01-11 17:53:00,
2013-01-11 12:58:00,68.0,56.6,30.21,North,0,0.0,0.0,67,0.00,CLR,FEW,0.04,WeatherDisplay:10.37,2013-01-11 17:58:00,
2013-01-11 13:03:00,67.6,57.9,30.21,North,0,0.0,0.0,71,0.00,CLR,FEW,0.04,WeatherDisplay:10.37,2013-01-11 18:03:00,
2013-01-11 13:08:00,68.0,59.8,30.21,North,0,0.0,0.0,75,0.00,CLR,FEW,0.04,WeatherDisplay:10.37,2013-01-11 18:08:00,
2013-01-11 13:13:00,68.7,60.5,30.21,North,0,0.0,0.0,75,0.00,CLR,FEW,0.04,WeatherDisplay:10.37,2013-01-11 18:13:00,
2013-01-11 13:18:00,68.9,58.7,30.21,North,0,0.0,0.0,70,0.00,CLR,FEW,0.04,WeatherDisplay:10.37,2013-01-11 18:18:00,
2013-01-11 13:23:00,68.9,58.7,30.21,North,0,0.0,0.0,70,0.00,CLR,FEW,0.04,WeatherDisplay:10.37,2013-01-11 18:23:00,
2013-01-11 13:28:00,68.4,56.1,30.21,North,0,0.0,0.0,65,0.00,CLR,FEW,0.04,WeatherDisplay:10.37,2013-01-11 18:28:00,
2013-01-11 13:33:00,67.6,56.3,30.21,North,0,0.0,0.0,67,0.00,CLR,FEW,0.04,WeatherDisplay:10.37,2013-01-11 18:33:00,
2013-01-11 13:38:00,66.9,56.0,30.21,North,0,0.0,0.0,68,0.00,CLR,FEW,0.04,WeatherDisplay:10.37,2013-01-11 18:38:00,
2013-01-11 13:44:00,66.7,56.2,30.21,North,0,0.0,0.0,69,0.00,CLR,FEW,0.04,WeatherDisplay:10.37,2013-01-11 18:44:00,
2013-01-11 13:49:00,66.4,58.6,30.21,North,0,0.0,0.0,76,0.00,CLR,FEW,0.04,WeatherDisplay:10.37,2013-01-11 18:49:00,
2013-01-11 13:54:00,65.7,56.8,30.21,North,0,0.0,0.0,73,0.00,CLR,FEW,0.04,WeatherDisplay:10.37,2013-01-11 18:54:00,
2013-01-11 13:59:00,65.1,57.0,30.21,North,0,0.0,0.0,75,0.00,CLR,FEW,0.04,WeatherDisplay:10.37,2013-01-11 18:59:00,
2013-01-11 14:04:00,64.9,57.6,30.21,North,0,0.0,0.0,77,0.00,CLR,FEW,0.04,WeatherDisplay:10.37,2013-01-11 19:04:00,
2013-01-11 14:09:00,64.9,58.3,30.21,North,0,0.0,0.0,79,0.00,CLR,FEW,0.04,WeatherDisplay:10.37,2013-01-11 19:09:00,
2013-01-11 14:14:00,65.3,59.0,30.18,North,0,0.0,0.0,80,0.00,CLR,FEW,0.04,WeatherDisplay:10.37,2013-01-11 19:14:00,
2013-01-11 14:19:00,66.2,60.5,30.18,North,0,0.0,0.0,82,0.00,CLR,FEW,0.04,WeatherDisplay:10.37,2013-01-11 19:19:00,
2013-01-11 14:24:00,66.7,61.4,30.18,North,0,0.0,0.0,83,0.00,CLR,FEW,0.04,WeatherDisplay:10.37,2013-01-11 19:24:00,
2013-01-11 14:29:00,67.5,62.5,30.21,North,0,0.0,0.0,84,0.00,CLR,FEW,0.04,WeatherDisplay:10.37,2013-01-11 19:29:00,
2013-01-11 14:34:00,68.2,62.8,30.21,North,0,0.0,0.0,83,0.00,CLR,FEW,0.04,WeatherDisplay:10.37,2013-01-11 19:34:00,
2013-01-11 14:39:00,68.4,61.9,30.21,North,0,0.0,0.0,80,0.00,CLR,FEW,0.04,WeatherDisplay:10.37,2013-01-11 19:39:00,
2013-01-11 14:44:00,68.9,61.4,30.18,North,0,0.0,0.0,77,0.00,CLR,FEW,0.04,WeatherDisplay:10.37,2013-01-11 19:44:00,
2013-01-11 14:49:00,69.1,59.3,30.18,North,0,0.0,0.0,71,0.00,CLR,FEW,0.04,WeatherDisplay:10.37,2013-01-11 19:49:00,
2013-01-11 14:54:00,69.1,58.9,30.18,North,0,0.0,0.0,70,0.00,CLR,FEW,0.04,WeatherDisplay:10.37,2013-01-11 19:54:00,
2013-01-11 14:59:00,68.5,57.6,30.18,North,0,0.0,0.0,68,0.00,CLR,FEW,0.04,WeatherDisplay:10.37,2013-01-11 19:59:00,
2013-01-11 15:04:00,67.6,56.3,30.18,North,0,0.0,0.0,67,0.00,CLR,FEW,0.04,WeatherDisplay:10.37,2013-01-11 20:04:00,
2013-01-11 15:10:00,66.4,55.5,30.18,North,0,0.0,0.0,68,0.00,CLR,FEW,0.04,WeatherDisplay:10.37,2013-01-11 20:10:00,
2013-01-11 15:15:00,65.8,56.6,30.18,North,0,0.0,0.0,72,0.00,CLR,FEW,0.04,WeatherDisplay:10.37,2013-01-11 20:15:00,
2013-01-11 15:20:00,65.5,58.1,30.18,North,0,0.0,0.0,77,0.00,CLR,FEW,0.04,WeatherDisplay:10.37,2013-01-11 20:20:00,
2013-01-11 15:25:00,65.3,59.0,30.18,North,0,0.0,0.0,80,0.00,CLR,FEW,0.04,WeatherDisplay:10.37,2013-01-11 20:25:00,
2013-01-11 15:30:00,64.9,59.0,30.18,North,0,0.0,0.0,81,0.00,CLR,FEW,0.04,WeatherDisplay:10.37,2013-01-11 20:30:00,
2013-01-11 15:35:00,64.8,59.1,30.18,North,0,0.0,0.0,82,0.00,CLR,FEW,0.04,WeatherDisplay:10.37,2013-01-11 20:35:00,
2013-01-11 15:40:00,64.6,59.3,30.18,North,0,0.0,0.0,83,0.00,CLR,FEW,0.04,WeatherDisplay:10.37,2013-01-11 20:40:00,
2013-01-11 15:45:00,64.9,60.6,30.18,North,0,0.0,0.0,86,0.00,CLR,FEW,0.04,WeatherDisplay:10.37,2013-01-11 20:45:00,
2013-01-11 15:50:00,65.3,61.7,30.18,North,0,0.0,0.0,88,0.00,CLR,FEW,0.04,WeatherDisplay:10.37,2013-01-11 20:50:00,
2013-01-11 15:56:00,65.5,61.8,30.18,North,0,0.0,0.0,88,0.00,CLR,FEW,0.04,WeatherDisplay:10.37,2013-01-11 20:56:00,
2013-01-11 16:01:00,65.5,62.2,30.18,North,0,0.0,0.0,89,0.00,CLR,FEW,0.04,WeatherDisplay:10.37,2013-01-11 21:01:00,
2013-01-11 16:06:00,65.1,61.5,30.18,North,0,0.0,0.0,88,0.00,CLR,FEW,0.04,WeatherDisplay:10.37,2013-01-11 21:06:00,
2013-01-11 16:11:00,64.8,60.1,30.18,North,0,0.0,0.0,85,0.00,CLR,FEW,0.04,WeatherDisplay:10.37,2013-01-11 21:11:00,
2013-01-11 16:16:00,64.6,60.0,30.18,North,0,0.0,0.0,85,0.00,CLR,FEW,0.04,WeatherDisplay:10.37,2013-01-11 21:16:00,
2013-01-11 16:21:00,64.4,60.1,30.18,North,0,0.0,0.0,86,0.00,CLR,FEW,0.04,WeatherDisplay:10.37,2013-01-11 21:21:00,
2013-01-11 16:26:00,64.2,59.9,30.18,North,0,0.0,0.0,86,0.00,CLR,FEW,0.04,WeatherDisplay:10.37,2013-01-11 21:26:00,
2013-01-11 16:31:00,64.2,60.3,30.18,North,0,0.0,0.0,87,0.00,CLR,FEW,0.04,WeatherDisplay:10.37,2013-01-11 21:31:00,
2013-01-11 16:36:00,64.4,60.4,30.18,North,0,0.0,0.0,87,0.00,CLR,FEW,0.04,WeatherDisplay:10.37,2013-01-11 21:36:00,
2013-01-11 16:41:00,64.4,60.4,30.18,North,0,0.0,0.0,87,0.00,CLR,FEW,0.04,WeatherDisplay:10.37,2013-01-11 21:41:00,
2013-01-11 16:46:00,64.4,60.4,30.18,North,0,0.0,0.0,87,0.00,CLR,FEW,0.04,WeatherDisplay:10.37,2013-01-11 21:46:00,
2013-01-11 16:51:00,63.9,59.6,30.18,North,0,0.0,0.0,86,0.00,CLR,FEW,0.04,WeatherDisplay:10.37,2013-01-11 21:51:00,
2013-01-11 16:56:00,63.3,58.7,30.18,North,0,0.0,0.0,85,0.00,CLR,FEW,0.04,WeatherDisplay:10.37,2013-01-11 21:56:00,
2013-01-11 17:01:00,63.1,58.6,30.18,North,0,0.0,0.0,85,0.00,CLR,FEW,0.04,WeatherDisplay:10.37,2013-01-11 22:01:00,
2013-01-11 17:06:00,63.0,58.4,30.18,North,0,0.0,0.0,85,0.00,CLR,FEW,0.04,WeatherDisplay:10.37,2013-01-11 22:06:00,
2013-01-11 17:11:00,63.0,58.7,30.18,North,0,0.0,0.0,86,0.00,CLR,FEW,0.04,WeatherDisplay:10.37,2013-01-11 22:11:00,
2013-01-11 17:16:00,63.0,59.0,30.18,North,0,0.0,0.0,87,0.00,CLR,FEW,0.04,WeatherDisplay:10.37,2013-01-11 22:16:00,
2013-01-11 17:21:00,63.0,59.0,30.18,North,0,0.0,0.0,87,0.00,CLR,FEW,0.04,WeatherDisplay:10.37,2013-01-11 22:21:00,
2013-01-11 17:26:00,63.0,59.3,30.18,North,0,0.0,0.0,88,0.00,CLR,FEW,0.04,WeatherDisplay:10.37,2013-01-11 22:26:00,
2013-01-11 17:31:00,63.0,59.3,30.18,North,0,0.0,0.0,88,0.00,CLR,FEW,0.04,WeatherDisplay:10.37,2013-01-11 22:31:00,
2013-01-11 17:36:00,62.8,59.2,30.18,North,0,0.0,0.0,88,0.00,CLR,FEW,0.04,WeatherDisplay:10.37,2013-01-11 22:36:00,
2013-01-11 17:41:00,62.6,59.0,30.18,North,0,0.0,0.0,88,0.00,CLR,FEW,0.04,WeatherDisplay:10.37,2013-01-11 22:41:00,
2013-01-11 17:46:00,62.4,59.1,30.18,North,0,0.0,0.0,89,0.00,CLR,FEW,0.04,WeatherDisplay:10.37,2013-01-11 22:46:00,
2013-01-11 17:51:00,62.4,59.1,30.18,North,0,0.0,0.0,89,0.00,CLR,FEW,0.04,WeatherDisplay:10.37,2013-01-11 22:51:00,
2013-01-11 17:56:00,62.4,59.1,30.18,North,0,0.0,0.0,89,0.00,CLR,FEW,0.04,WeatherDisplay:10.37,2013-01-11 22:56:00,
2013-01-11 18:01:00,62.1,58.8,30.18,North,0,0.0,0.0,89,0.00,CLR,FEW,0.04,WeatherDisplay:10.37,2013-01-11 23:01:00,
2013-01-11 18:06:00,61.9,58.9,30.18,North,0,0.0,0.0,90,0.00,CLR,FEW,0.04,WeatherDisplay:10.37,2013-01-11 23:06:00,
2013-01-11 18:11:00,61.9,58.9,30.18,North,0,0.0,0.0,90,0.00,CLR,FEW,0.04,WeatherDisplay:10.37,2013-01-11 23:11:00,
2013-01-11 18:16:00,61.9,58.9,30.18,North,0,0.0,0.0,90,0.00,CLR,FEW,0.04,WeatherDisplay:10.37,2013-01-11 23:16:00,
2013-01-11 18:21:00,61.9,58.9,30.18,North,0,0.0,0.0,90,0.00,CLR,FEW,0.04,WeatherDisplay:10.37,2013-01-11 23:21:00,
2013-01-11 18:26:00,61.7,58.7,30.18,North,0,0.0,0.0,90,0.00,CLR,FEW,0.04,WeatherDisplay:10.37,2013-01-11 23:26:00,
2013-01-11 18:31:00,61.7,59.0,30.18,North,0,0.0,0.0,91,0.00,CLR,FEW,0.04,WeatherDisplay:10.37,2013-01-11 23:31:00,
2013-01-11 18:36:00,61.7,59.0,30.18,North,0,0.0,0.0,91,0.00,CLR,FEW,0.04,WeatherDisplay:10.37,2013-01-11 23:36:00,
2013-01-11 18:41:00,61.3,58.7,30.18,North,0,0.0,0.0,91,0.00,CLR,FEW,0.04,WeatherDisplay:10.37,2013-01-11 23:41:00,
2013-01-11 18:46:00,61.3,58.7,30.18,North,0,0.0,0.0,91,0.00,CLR,FEW,0.04,WeatherDisplay:10.37,2013-01-11 23:46:00,
2013-01-11 18:51:00,61.2,58.5,30.18,North,0,0.0,0.0,91,0.00,CLR,FEW,0.04,WeatherDisplay:10.37,2013-01-11 23:51:00,
2013-01-11 18:56:00,61.2,58.5,30.18,North,0,0.0,0.0,91,0.00,CLR,FEW,0.04,WeatherDisplay:10.37,2013-01-11 23:56:00,
2013-01-11 19:01:00,61.0,58.3,30.18,North,0,0.0,0.0,91,0.00,CLR,FEW,0.04,WeatherDisplay:10.37,2013-01-12 00:01:00,
2013-01-11 19:06:00,60.8,58.5,30.18,North,0,0.0,0.0,92,0.00,CLR,FEW,0.04,WeatherDisplay:10.37,2013-01-12 00:06:00,
2013-01-11 19:11:00,60.8,58.5,30.18,North,0,0.0,0.0,92,0.00,CLR,FEW,0.04,WeatherDisplay:10.37,2013-01-12 00:11:00,
2013-01-11 19:16:00,60.6,58.3,30.18,North,0,0.0,0.0,92,0.00,CLR,FEW,0.04,WeatherDisplay:10.37,2013-01-12 00:16:00,
2013-01-11 19:21:00,60.4,58.1,30.18,North,0,0.0,0.0,92,0.00,CLR,FEW,0.04,WeatherDisplay:10.37,2013-01-12 00:21:00,
2013-01-11 19:26:00,60.4,58.4,30.18,North,0,0.0,0.0,93,0.00,CLR,FEW,0.04,WeatherDisplay:10.37,2013-01-12 00:26:00,
2013-01-11 19:31:00,60.4,58.4,30.18,North,0,0.0,0.0,93,0.00,CLR,FEW,0.04,WeatherDisplay:10.37,2013-01-12 00:31:00,
2013-01-11 19:37:00,60.4,58.4,30.18,North,0,0.0,0.0,93,0.00,CLR,FEW,0.04,WeatherDisplay:10.37,2013-01-12 00:37:00,
2013-01-11 19:42:00,60.4,58.4,30.18,North,0,0.0,0.0,93,0.00,CLR,FEW,0.04,WeatherDisplay:10.37,2013-01-12 00:42:00,
2013-01-11 19:47:00,60.4,58.4,30.18,North,0,0.0,0.0,93,0.00,CLR,FEW,0.04,WeatherDisplay:10.37,2013-01-12 00:47:00,
2013-01-11 19:52:00,60.1,58.0,30.18,North,0,0.0,0.0,93,0.00,CLR,FEW,0.04,WeatherDisplay:10.37,2013-01-12 00:52:00,
2013-01-11 19:57:00,60.1,58.0,30.18,North,0,0.0,0.0,93,0.00,CLR,FEW,0.04,WeatherDisplay:10.37,2013-01-12 00:57:00,
2013-01-11 20:02:00,60.1,58.0,30.18,North,0,0.0,0.0,93,0.00,CLR,FEW,0.04,WeatherDisplay:10.37,2013-01-12 01:02:00,
2013-01-11 20:07:00,60.1,58.3,30.18,North,0,0.0,0.0,94,0.00,CLR,FEW,0.04,WeatherDisplay:10.37,2013-01-12 01:07:00,
2013-01-11 20:12:00,60.1,58.3,30.18,North,0,0.0,0.0,94,0.00,CLR,FEW,0.04,WeatherDisplay:10.37,2013-01-12 01:12:00,
2013-01-11 20:17:00,59.9,58.2,30.18,North,0,0.0,0.0,94,0.00,CLR,FEW,0.04,WeatherDisplay:10.37,2013-01-12 01:17:00,
2013-01-11 20:22:00,59.9,58.2,30.18,North,0,0.0,0.0,94,0.00,CLR,FEW,0.04,WeatherDisplay:10.37,2013-01-12 01:22:00,
2013-01-11 20:27:00,60.1,58.3,30.18,North,0,0.0,0.0,94,0.00,CLR,FEW,0.04,WeatherDisplay:10.37,2013-01-12 01:27:00,
2013-01-11 20:32:00,60.1,58.3,30.18,North,0,0.0,0.0,94,0.00,CLR,FEW,0.04,WeatherDisplay:10.37,2013-01-12 01:32:00,
2013-01-11 20:37:00,60.3,58.5,30.18,North,0,0.0,0.0,94,0.00,CLR,FEW,0.04,WeatherDisplay:10.37,2013-01-12 01:37:00,
2013-01-11 20:42:00,60.3,58.5,30.18,North,0,0.0,0.0,94,0.00,CLR,FEW,0.04,WeatherDisplay:10.37,2013-01-12 01:42:00,
2013-01-11 20:47:00,60.3,58.8,30.18,North,0,0.0,0.0,95,0.00,CLR,FEW,0.04,WeatherDisplay:10.37,2013-01-12 01:47:00,
2013-01-11 20:52:00,60.3,58.8,30.18,North,0,0.0,0.0,95,0.00,CLR,FEW,0.04,WeatherDisplay:10.37,2013-01-12 01:52:00,
2013-01-11 20:57:00,60.3,58.8,30.18,North,0,0.0,0.0,95,0.00,CLR,FEW,0.04,WeatherDisplay:10.37,2013-01-12 01:57:00,
2013-01-11 21:02:00,60.3,58.8,30.18,North,0,0.0,0.0,95,0.00,CLR,FEW,0.04,WeatherDisplay:10.37,2013-01-12 02:02:00,
2013-01-11 21:07:00,60.3,58.8,30.18,North,0,0.0,0.0,95,0.00,CLR,FEW,0.04,WeatherDisplay:10.37,2013-01-12 02:07:00,
2013-01-11 21:12:00,60.3,58.8,30.18,North,0,0.0,0.0,95,0.00,CLR,FEW,0.04,WeatherDisplay:10.37,2013-01-12 02:12:00,
2013-01-11 21:17:00,60.1,58.6,30.18,North,0,0.0,0.0,95,0.00,CLR,FEW,0.04,WeatherDisplay:10.37,2013-01-12 02:17:00,
2013-01-11 21:22:00,60.1,58.6,30.18,North,0,0.0,0.0,95,0.00,CLR,FEW,0.04,WeatherDisplay:10.37,2013-01-12 02:22:00,
2013-01-11 21:27:00,59.9,58.5,30.18,North,0,0.0,0.0,95,0.00,CLR,FEW,0.04,WeatherDisplay:10.37,2013-01-12 02:27:00,
2013-01-11 21:32:00,60.1,58.9,30.18,North,0,0.0,0.0,96,0.00,CLR,FEW,0.04,WeatherDisplay:10.37,2013-01-12 02:32:00,
2013-01-11 21:37:00,60.1,58.9,30.18,North,0,0.0,0.0,96,0.00,CLR,FEW,0.04,WeatherDisplay:10.37,2013-01-12 02:37:00,
2013-01-11 21:42:00,60.1,58.9,30.18,North,0,0.0,0.0,96,0.00,CLR,FEW,0.04,WeatherDisplay:10.37,2013-01-12 02:42:00,
2013-01-11 21:47:00,60.1,58.9,30.18,North,0,0.0,0.0,96,0.00,CLR,FEW,0.04,WeatherDisplay:10.37,2013-01-12 02:47:00,
2013-01-11 21:52:00,60.1,58.9,30.18,North,0,0.0,0.0,96,0.00,CLR,FEW,0.04,WeatherDisplay:10.37,2013-01-12 02:52:00,
2013-01-11 21:57:00,60.1,58.9,30.18,North,0,0.0,0.0,96,0.00,CLR,FEW,0.04,WeatherDisplay:10.37,2013-01-12 02:57:00,
2013-01-11 22:02:00,60.1,58.9,30.18,North,0,0.0,0.0,96,0.00,CLR,FEW,0.04,WeatherDisplay:10.37,2013-01-12 03:02:00,
2013-01-11 22:07:00,60.1,58.9,30.18,North,0,0.0,0.0,96,0.00,CLR,FEW,0.04,WeatherDisplay:10.37,2013-01-12 03:07:00,
2013-01-11 22:12:00,60.1,58.9,30.18,North,0,0.0,0.0,96,0.00,CLR,FEW,0.04,WeatherDisplay:10.37,2013-01-12 03:12:00,
2013-01-11 22:17:00,60.3,59.1,30.18,North,0,0.0,0.0,96,0.00,CLR,FEW,0.04,WeatherDisplay:10.37,2013-01-12 03:17:00,
2013-01-11 22:22:00,60.3,59.1,30.18,North,0,0.0,0.0,96,0.00,CLR,FEW,0.04,WeatherDisplay:10.37,2013-01-12 03:22:00,
2013-01-11 22:27:00,60.3,59.1,30.18,North,0,0.0,0.0,96,0.00,CLR,FEW,0.04,WeatherDisplay:10.37,2013-01-12 03:27:00,
2013-01-11 22:32:00,60.3,59.1,30.18,North,0,0.0,0.0,96,0.00,CLR,FEW,0.04,WeatherDisplay:10.37,2013-01-12 03:32:00,
2013-01-11 22:37:00,60.1,58.9,30.18,North,0,0.0,0.0,96,0.00,CLR,FEW,0.04,WeatherDisplay:10.37,2013-01-12 03:37:00,
2013-01-11 22:42:00,59.9,58.8,30.18,North,0,0.0,0.0,96,0.00,CLR,FEW,0.04,WeatherDisplay:10.37,2013-01-12 03:42:00,
2013-01-11 22:47:00,59.9,58.8,30.18,North,0,0.0,0.0,96,0.00,CLR,FEW,0.04,WeatherDisplay:10.37,2013-01-12 03:47:00,
2013-01-11 22:52:00,59.7,58.6,30.18,North,0,0.0,0.0,96,0.00,CLR,FEW,0.04,WeatherDisplay:10.37,2013-01-12 03:52:00,
2013-01-11 22:57:00,59.9,59.0,30.18,North,0,0.0,0.0,97,0.00,CLR,FEW,0.04,WeatherDisplay:10.37,2013-01-12 03:57:00,
2013-01-11 23:02:00,59.9,59.0,30.18,North,0,0.0,0.0,97,0.00,CLR,FEW,0.04,WeatherDisplay:10.37,2013-01-12 04:02:00,
2013-01-11 23:07:00,59.7,58.9,30.18,North,0,0.0,0.0,97,0.00,CLR,FEW,0.04,WeatherDisplay:10.37,2013-01-12 04:07:00,
2013-01-11 23:12:00,59.7,58.9,30.18,North,0,0.0,0.0,97,0.00,CLR,FEW,0.04,WeatherDisplay:10.37,2013-01-12 04:12:00,
2013-01-11 23:17:00,59.7,58.9,30.18,North,0,0.0,0.0,97,0.00,CLR,FEW,0.04,WeatherDisplay:10.37,2013-01-12 04:17:00,
2013-01-11 23:23:00,59.7,58.9,30.18,North,0,0.0,0.0,97,0.00,CLR,FEW,0.04,WeatherDisplay:10.37,2013-01-12 04:23:00,
2013-01-11 23:28:00,59.5,58.7,30.18,North,0,0.0,0.0,97,0.00,CLR,FEW,0.04,WeatherDisplay:10.37,2013-01-12 04:28:00,
2013-01-11 23:33:00,59.0,57.9,30.18,North,0,0.0,0.0,96,0.00,CLR,FEW,0.04,WeatherDisplay:10.37,2013-01-12 04:33:00,
2013-01-11 23:38:00,58.8,58.0,30.18,North,0,0.0,0.0,97,0.00,CLR,FEW,0.04,WeatherDisplay:10.37,2013-01-12 04:38:00,
2013-01-11 23:43:00,58.8,58.0,30.18,North,0,0.0,0.0,97,0.00,CLR,FEW,0.04,WeatherDisplay:10.37,2013-01-12 04:43:00,
2013-01-11 23:48:00,58.6,57.8,30.18,North,0,0.0,0.0,97,0.00,CLR,FEW,0.04,WeatherDisplay:10.37,2013-01-12 04:48:00,
2013-01-11 23:53:00,58.3,57.4,30.18,North,0,0.0,0.0,97,0.00,CLR,FEW,0.04,WeatherDisplay:10.37,2013-01-12 04:53:00,
2013-01-11 23:58:00,57.9,57.1,30.18,North,0,0.0,0.0,97,0.00,CLR,FEW,0.04,WeatherDisplay:10.37,2013-01-12 04:58:00,